Time,TemperatureF,DewpointF,PressureIn,WindDirection,WindDirectionDegrees,WindSpeedMPH,WindSpeedGustMPH,Humidity,HourlyPrecipIn,Conditions,Clouds,dailyrainin,SoftwareType,DateUTC
2013-02-13 00:02:00,29.0,26.0,29.83,WNW,284,0.0,0.0,87,0.00,,,0.00,,2013-02-13 06:02:00,
2013-02-13 00:11:00,28.0,25.0,29.83,WNW,284,0.0,1.0,89,0.00,,,0.00,,2013-02-13 06:11:00,
2013-02-13 00:21:00,28.0,25.0,29.83,WNW,284,0.0,1.0,89,0.00,,,0.00,,2013-02-13 06:21:00,
2013-02-13 00:32:00,28.0,25.0,29.83,WNW,284,0.0,1.0,90,0.00,,,0.00,,2013-02-13 06:32:00,
2013-02-13 00:42:00,28.0,26.0,29.83,WNW,284,0.0,1.0,91,0.00,,,0.00,,2013-02-13 06:42:00,
2013-02-13 00:51:00,28.0,26.0,29.83,WNW,284,0.0,1.0,91,0.00,,,0.00,,2013-02-13 06:51:00,
2013-02-13 01:02:00,29.0,27.0,29.83,WNW,284,0.0,2.0,91,0.00,,,0.00,,2013-02-13 07:02:00,
2013-02-13 01:11:00,29.0,27.0,29.83,WNW,284,0.0,2.0,91,0.00,,,0.00,,2013-02-13 07:11:00,
2013-02-13 01:21:00,29.0,27.0,29.83,WNW,284,0.0,2.0,91,0.00,,,0.00,,2013-02-13 07:21:00,
2013-02-13 01:31:00,29.0,27.0,29.82,WNW,284,3.0,5.0,91,0.00,,,0.00,,2013-02-13 07:31:00,
2013-02-13 01:41:00,29.0,26.0,29.82,WNW,297,4.0,7.0,90,0.00,,,0.00,,2013-02-13 07:41:00,
2013-02-13 01:51:00,29.0,26.0,29.82,WNW,297,4.0,7.0,90,0.00,,,0.00,,2013-02-13 07:51:00,
2013-02-13 02:01:00,29.0,26.0,29.83,WNW,297,2.0,5.0,89,0.00,,,0.00,,2013-02-13 08:01:00,
2013-02-13 02:11:00,29.0,26.0,29.82,WNW,297,0.0,5.0,88,0.00,,,0.00,,2013-02-13 08:11:00,
2013-02-13 02:21:00,29.0,26.0,29.82,WNW,297,0.0,5.0,88,0.00,,,0.00,,2013-02-13 08:21:00,
2013-02-13 02:31:00,29.0,26.0,29.82,WNW,297,0.0,2.0,88,0.00,,,0.00,,2013-02-13 08:31:00,
2013-02-13 02:43:00,29.0,26.0,29.82,WNW,297,0.0,2.0,88,0.00,,,0.00,,2013-02-13 08:43:00,
2013-02-13 02:52:00,28.0,25.0,29.82,WNW,297,0.0,2.0,89,0.00,,,0.00,,2013-02-13 08:52:00,
2013-02-13 03:01:00,28.0,25.0,29.81,WNW,297,0.0,2.0,90,0.00,,,0.00,,2013-02-13 09:01:00,
2013-02-13 03:11:00,28.0,26.0,29.80,WNW,297,1.0,5.0,91,0.00,,,0.00,,2013-02-13 09:11:00,
2013-02-13 03:21:00,28.0,26.0,29.80,WNW,297,1.0,5.0,91,0.00,,,0.00,,2013-02-13 09:21:00,
2013-02-13 03:31:00,28.0,26.0,29.80,WNW,299,4.0,8.0,91,0.00,,,0.00,,2013-02-13 09:31:00,
2013-02-13 03:41:00,28.0,25.0,29.80,NW,306,3.0,7.0,90,0.00,,,0.00,,2013-02-13 09:41:00,
2013-02-13 03:52:00,28.0,25.0,29.80,NW,306,3.0,7.0,90,0.00,,,0.00,,2013-02-13 09:52:00,
2013-02-13 04:01:00,28.0,25.0,29.80,NW,304,2.0,5.0,90,0.00,,,0.00,,2013-02-13 10:01:00,
2013-02-13 04:11:00,28.0,25.0,29.79,NW,305,1.0,4.0,90,0.00,,,0.00,,2013-02-13 10:11:00,
2013-02-13 04:21:00,28.0,25.0,29.79,NW,305,1.0,4.0,90,0.00,,,0.00,,2013-02-13 10:21:00,
2013-02-13 04:32:00,28.0,25.0,29.79,NW,305,2.0,4.0,90,0.00,,,0.00,,2013-02-13 10:32:00,
2013-02-13 04:42:00,27.0,24.0,29.79,NW,310,4.0,8.0,90,0.00,,,0.00,,2013-02-13 10:42:00,
2013-02-13 04:52:00,27.0,24.0,29.79,NW,310,4.0,8.0,90,0.00,,,0.00,,2013-02-13 10:52:00,
2013-02-13 05:01:00,27.0,24.0,29.79,NW,307,3.0,7.0,90,0.00,,,0.00,,2013-02-13 11:01:00,
2013-02-13 05:11:00,27.0,24.0,29.79,NW,307,3.0,7.0,90,0.00,,,0.00,,2013-02-13 11:11:00,
2013-02-13 05:22:00,27.0,24.0,29.79,NW,307,3.0,7.0,90,0.00,,,0.00,,2013-02-13 11:22:00,
2013-02-13 05:32:00,27.0,24.0,29.78,NW,307,3.0,6.0,90,0.00,,,0.00,,2013-02-13 11:32:00,
2013-02-13 05:42:00,27.0,24.0,29.78,NW,308,2.0,5.0,90,0.00,,,0.00,,2013-02-13 11:42:00,
2013-02-13 05:52:00,27.0,24.0,29.78,NW,308,2.0,5.0,90,0.00,,,0.00,,2013-02-13 11:52:00,
2013-02-13 06:02:00,27.0,24.0,29.78,NW,308,2.0,6.0,90,0.00,,,0.00,,2013-02-13 12:02:00,
2013-02-13 06:11:00,26.0,23.0,29.78,NW,308,1.0,5.0,90,0.00,,,0.00,,2013-02-13 12:11:00,
2013-02-13 06:21:00,26.0,23.0,29.78,NW,308,1.0,5.0,90,0.00,,,0.00,,2013-02-13 12:21:00,
2013-02-13 06:32:00,26.0,23.0,29.77,NW,308,1.0,4.0,90,0.00,,,0.00,,2013-02-13 12:32:00,
2013-02-13 06:42:00,26.0,24.0,29.78,NW,308,2.0,6.0,91,0.00,,,0.00,,2013-02-13 12:42:00,
2013-02-13 06:52:00,26.0,24.0,29.78,NW,308,2.0,6.0,91,0.00,,,0.00,,2013-02-13 12:52:00,
2013-02-13 07:02:00,26.0,24.0,29.78,NW,309,1.0,6.0,91,0.00,,,0.00,,2013-02-13 13:02:00,
2013-02-13 07:11:00,26.0,24.0,29.78,NW,309,1.0,6.0,91,0.00,,,0.00,,2013-02-13 13:11:00,
2013-02-13 07:21:00,26.0,24.0,29.78,NW,309,1.0,6.0,91,0.00,,,0.00,,2013-02-13 13:21:00,
2013-02-13 07:32:00,25.0,23.0,29.78,NW,309,1.0,2.0,91,0.00,,,0.00,,2013-02-13 13:32:00,
2013-02-13 07:41:00,25.0,23.0,29.78,NW,310,0.0,2.0,91,0.00,,,0.00,,2013-02-13 13:41:00,
2013-02-13 07:52:00,25.0,23.0,29.78,NW,310,0.0,2.0,91,0.00,,,0.00,,2013-02-13 13:52:00,
2013-02-13 08:01:00,25.0,23.0,29.78,NW,310,0.0,2.0,91,0.00,,,0.00,,2013-02-13 14:01:00,
2013-02-13 08:11:00,26.0,24.0,29.78,NW,310,0.0,1.0,92,0.00,,,0.00,,2013-02-13 14:11:00,
2013-02-13 08:21:00,26.0,24.0,29.78,NW,310,0.0,1.0,92,0.00,,,0.00,,2013-02-13 14:21:00,
2013-02-13 08:31:00,27.0,25.0,29.78,NW,313,4.0,7.0,91,0.00,,,0.00,,2013-02-13 14:31:00,
2013-02-13 08:42:00,28.0,25.0,29.78,NW,323,7.0,12.0,90,0.00,,,0.00,,2013-02-13 14:42:00,
2013-02-13 08:52:00,28.0,25.0,29.78,NW,323,7.0,12.0,90,0.00,,,0.00,,2013-02-13 14:52:00,
2013-02-13 09:01:00,29.0,26.0,29.78,NNW,332,5.0,11.0,89,0.00,,,0.00,,2013-02-13 15:01:00,
2013-02-13 09:11:00,30.0,27.0,29.78,NNW,328,6.0,9.0,88,0.00,,,0.00,,2013-02-13 15:11:00,
2013-02-13 09:21:00,30.0,27.0,29.78,NNW,328,6.0,9.0,88,0.00,,,0.00,,2013-02-13 15:21:00,
2013-02-13 09:32:00,30.0,27.0,29.78,NNW,328,6.0,9.0,88,0.00,,,0.00,,2013-02-13 15:32:00,
2013-02-13 09:42:00,30.0,27.0,29.78,NNW,328,6.0,9.0,88,0.00,,,0.00,,2013-02-13 15:42:00,
2013-02-13 09:51:00,32.0,28.0,29.79,NNW,333,5.0,9.0,86,0.00,,,0.00,,2013-02-13 15:51:00,
2013-02-13 10:01:00,32.0,28.0,29.78,NNW,334,5.0,11.0,86,0.00,,,0.00,,2013-02-13 16:01:00,
2013-02-13 10:11:00,33.0,29.0,29.78,NNW,344,2.0,9.0,85,0.00,,,0.00,,2013-02-13 16:11:00,
2013-02-13 10:21:00,33.0,29.0,29.78,NNW,344,2.0,9.0,85,0.00,,,0.00,,2013-02-13 16:21:00,
2013-02-13 10:31:00,33.0,29.0,29.78,NNW,344,2.0,9.0,85,0.00,,,0.00,,2013-02-13 16:31:00,
2013-02-13 10:42:00,33.0,29.0,29.78,NNW,344,2.0,9.0,85,0.00,,,0.00,,2013-02-13 16:42:00,
2013-02-13 10:51:00,35.0,30.0,29.78,NW,326,4.0,8.0,83,0.00,,,0.00,,2013-02-13 16:51:00,
2013-02-13 11:01:00,36.0,32.0,29.77,NW,320,4.0,7.0,84,0.00,,,0.00,,2013-02-13 17:01:00,
2013-02-13 11:11:00,36.0,30.0,29.77,WNW,300,5.0,9.0,80,0.00,,,0.00,,2013-02-13 17:11:00,
2013-02-13 11:21:00,36.0,30.0,29.77,WNW,300,5.0,9.0,80,0.00,,,0.00,,2013-02-13 17:21:00,
2013-02-13 11:31:00,37.0,32.0,29.77,WNW,283,5.0,10.0,81,0.00,,,0.00,,2013-02-13 17:31:00,
2013-02-13 11:41:00,37.0,32.0,29.77,WNW,283,5.0,10.0,81,0.00,,,0.00,,2013-02-13 17:41:00,
2013-02-13 11:52:00,38.0,32.0,29.77,West,278,6.0,12.0,79,0.00,,,0.00,,2013-02-13 17:52:00,
2013-02-13 12:01:00,39.0,32.0,29.76,NW,316,5.0,10.0,76,0.00,,,0.00,,2013-02-13 18:01:00,
2013-02-13 12:11:00,39.0,32.0,29.76,NW,316,5.0,10.0,76,0.00,,,0.00,,2013-02-13 18:11:00,
2013-02-13 12:22:00,39.0,32.0,29.76,NW,316,5.0,10.0,76,0.00,,,0.00,,2013-02-13 18:22:00,
2013-02-13 12:32:00,41.0,34.0,29.75,West,281,5.0,10.0,75,0.00,,,0.00,,2013-02-13 18:32:00,
2013-02-13 12:41:00,41.0,34.0,29.75,West,281,5.0,10.0,75,0.00,,,0.00,,2013-02-13 18:41:00,
2013-02-13 12:52:00,41.0,33.0,29.74,NW,321,7.0,12.0,72,0.00,,,0.00,,2013-02-13 18:52:00,
2013-02-13 13:01:00,42.0,34.0,29.74,NW,308,6.0,12.0,73,0.00,,,0.00,,2013-02-13 19:01:00,
2013-02-13 13:11:00,43.0,34.0,29.73,WNW,296,6.0,11.0,71,0.00,,,0.00,,2013-02-13 19:11:00,
2013-02-13 13:21:00,43.0,34.0,29.73,WNW,296,6.0,11.0,71,0.00,,,0.00,,2013-02-13 19:21:00,
2013-02-13 13:31:00,44.0,35.0,29.73,West,271,4.0,12.0,70,0.00,,,0.00,,2013-02-13 19:31:00,
2013-02-13 13:41:00,44.0,35.0,29.73,West,271,4.0,12.0,70,0.00,,,0.00,,2013-02-13 19:41:00,
2013-02-13 13:52:00,45.0,35.0,29.72,West,269,5.0,11.0,69,0.00,,,0.00,,2013-02-13 19:52:00,
2013-02-13 14:02:00,46.0,35.0,29.72,West,281,6.0,12.0,65,0.00,,,0.00,,2013-02-13 20:02:00,
2013-02-13 14:11:00,46.0,35.0,29.72,West,281,7.0,12.0,64,0.00,,,0.00,,2013-02-13 20:11:00,
2013-02-13 14:21:00,46.0,35.0,29.72,West,281,7.0,12.0,64,0.00,,,0.00,,2013-02-13 20:21:00,
2013-02-13 14:31:00,47.0,35.0,29.71,West,281,7.0,11.0,64,0.00,,,0.00,,2013-02-13 20:31:00,
2013-02-13 14:42:00,47.0,35.0,29.70,West,277,6.0,11.0,64,0.00,,,0.00,,2013-02-13 20:42:00,
2013-02-13 14:52:00,47.0,35.0,29.70,West,277,6.0,11.0,64,0.00,,,0.00,,2013-02-13 20:52:00,
2013-02-13 15:01:00,47.0,35.0,29.70,West,277,6.0,11.0,64,0.00,,,0.00,,2013-02-13 21:01:00,
2013-02-13 15:11:00,47.0,35.0,29.70,West,277,6.0,11.0,64,0.00,,,0.00,,2013-02-13 21:11:00,
2013-02-13 15:21:00,49.0,37.0,29.69,West,277,2.0,13.0,62,0.00,,,0.00,,2013-02-13 21:21:00,
2013-02-13 15:32:00,49.0,35.0,29.68,West,265,2.0,11.0,59,0.00,,,0.00,,2013-02-13 21:32:00,
2013-02-13 15:42:00,49.0,35.0,29.68,WSW,256,3.0,9.0,58,0.00,,,0.00,,2013-02-13 21:42:00,
2013-02-13 15:52:00,49.0,35.0,29.68,WSW,256,3.0,9.0,58,0.00,,,0.00,,2013-02-13 21:52:00,
2013-02-13 16:02:00,49.0,35.0,29.68,WSW,256,3.0,9.0,58,0.00,,,0.00,,2013-02-13 22:02:00,
2013-02-13 16:11:00,49.0,35.0,29.68,West,275,4.0,12.0,58,0.00,,,0.00,,2013-02-13 22:11:00,
2013-02-13 16:21:00,49.0,35.0,29.68,West,275,4.0,12.0,58,0.00,,,0.00,,2013-02-13 22:21:00,
2013-02-13 16:31:00,49.0,36.0,29.68,West,272,2.0,11.0,60,0.00,,,0.00,,2013-02-13 22:31:00,
2013-02-13 16:42:00,49.0,36.0,29.68,West,272,2.0,11.0,60,0.00,,,0.00,,2013-02-13 22:42:00,
2013-02-13 16:51:00,48.0,35.0,29.67,West,269,0.0,7.0,60,0.00,,,0.00,,2013-02-13 22:51:00,
2013-02-13 17:01:00,48.0,35.0,29.67,West,269,0.0,7.0,60,0.00,,,0.00,,2013-02-13 23:01:00,
2013-02-13 17:11:00,47.0,34.0,29.67,West,267,2.0,7.0,61,0.00,,,0.00,,2013-02-13 23:11:00,
2013-02-13 17:21:00,47.0,34.0,29.67,West,267,2.0,7.0,61,0.00,,,0.00,,2013-02-13 23:21:00,
2013-02-13 17:32:00,45.0,34.0,29.67,West,265,0.0,4.0,65,0.00,,,0.00,,2013-02-13 23:32:00,
2013-02-13 17:42:00,45.0,34.0,29.67,West,265,0.0,4.0,65,0.00,,,0.00,,2013-02-13 23:42:00,
2013-02-13 17:52:00,44.0,34.0,29.67,West,265,1.0,4.0,68,0.00,,,0.00,,2013-02-13 23:52:00,
2013-02-13 18:02:00,43.0,34.0,29.67,West,264,0.0,5.0,70,0.00,,,0.00,,2013-02-14 00:02:00,
2013-02-13 18:11:00,43.0,34.0,29.67,West,264,0.0,5.0,70,0.00,,,0.00,,2013-02-14 00:11:00,
2013-02-13 18:21:00,43.0,34.0,29.67,West,263,0.0,2.0,71,0.00,,,0.00,,2013-02-14 00:21:00,
2013-02-13 18:32:00,42.0,34.0,29.67,West,263,0.0,5.0,72,0.00,,,0.00,,2013-02-14 00:32:00,
2013-02-13 18:42:00,42.0,34.0,29.67,West,263,0.0,5.0,72,0.00,,,0.00,,2013-02-14 00:42:00,
2013-02-13 18:52:00,42.0,33.0,29.66,WSW,239,0.0,7.0,71,0.00,,,0.00,,2013-02-14 00:52:00,
2013-02-13 19:01:00,42.0,33.0,29.65,SW,236,1.0,6.0,70,0.00,,,0.00,,2013-02-14 01:01:00,
2013-02-13 19:11:00,42.0,33.0,29.65,WSW,237,1.0,5.0,70,0.00,,,0.00,,2013-02-14 01:11:00,
2013-02-13 19:21:00,42.0,33.0,29.65,WSW,237,1.0,5.0,70,0.00,,,0.00,,2013-02-14 01:21:00,
2013-02-13 19:31:00,42.0,33.0,29.65,WSW,237,1.0,5.0,70,0.00,,,0.00,,2013-02-14 01:31:00,
2013-02-13 19:41:00,42.0,33.0,29.65,WSW,237,1.0,5.0,70,0.00,,,0.00,,2013-02-14 01:41:00,
2013-02-13 19:51:00,42.0,33.0,29.65,SW,218,1.0,6.0,71,0.00,,,0.00,,2013-02-14 01:51:00,
2013-02-13 20:01:00,42.0,34.0,29.65,SW,226,1.0,6.0,72,0.00,,,0.00,,2013-02-14 02:01:00,
2013-02-13 20:11:00,41.0,33.0,29.65,West,274,3.0,18.0,73,0.00,,,0.00,,2013-02-14 02:11:00,
2013-02-13 20:21:00,41.0,33.0,29.65,West,274,3.0,18.0,73,0.00,,,0.00,,2013-02-14 02:21:00,
2013-02-13 20:31:00,41.0,33.0,29.64,West,277,1.0,7.0,74,0.00,,,0.00,,2013-02-14 02:31:00,
2013-02-13 20:41:00,41.0,33.0,29.64,West,277,1.0,7.0,74,0.00,,,0.00,,2013-02-14 02:41:00,
2013-02-13 20:52:00,41.0,33.0,29.64,West,277,1.0,7.0,74,0.00,,,0.00,,2013-02-14 02:52:00,
2013-02-13 21:02:00,40.0,33.0,29.63,West,275,1.0,4.0,76,0.00,,,0.00,,2013-02-14 03:02:00,
2013-02-13 21:11:00,40.0,33.0,29.64,West,269,1.0,5.0,76,0.00,,,0.00,,2013-02-14 03:11:00,
2013-02-13 21:21:00,40.0,33.0,29.64,West,269,1.0,5.0,76,0.00,,,0.00,,2013-02-14 03:21:00,
2013-02-13 21:31:00,40.0,33.0,29.63,West,268,1.0,6.0,76,0.00,,,0.00,,2013-02-14 03:31:00,
2013-02-13 21:42:00,40.0,33.0,29.63,West,268,1.0,6.0,76,0.00,,,0.00,,2013-02-14 03:42:00,
2013-02-13 21:51:00,40.0,33.0,29.64,West,277,4.0,9.0,77,0.00,,,0.00,,2013-02-14 03:51:00,
2013-02-13 22:01:00,40.0,33.0,29.64,West,271,4.0,12.0,77,0.00,,,0.00,,2013-02-14 04:01:00,
2013-02-13 22:12:00,40.0,33.0,29.64,West,265,4.0,10.0,76,0.00,,,0.00,,2013-02-14 04:12:00,
2013-02-13 22:21:00,40.0,33.0,29.64,West,265,4.0,10.0,76,0.00,,,0.00,,2013-02-14 04:21:00,
2013-02-13 22:31:00,40.0,33.0,29.64,West,276,5.0,11.0,76,0.00,,,0.00,,2013-02-14 04:31:00,
2013-02-13 22:41:00,40.0,33.0,29.64,West,276,5.0,11.0,76,0.00,,,0.00,,2013-02-14 04:41:00,
2013-02-13 22:52:00,39.0,33.0,29.64,West,280,4.0,8.0,78,0.00,,,0.00,,2013-02-14 04:52:00,
2013-02-13 23:01:00,39.0,33.0,29.65,West,281,5.0,8.0,78,0.00,,,0.00,,2013-02-14 05:01:00,
2013-02-13 23:11:00,39.0,33.0,29.65,West,281,5.0,8.0,78,0.00,,,0.00,,2013-02-14 05:11:00,
2013-02-13 23:21:00,39.0,33.0,29.65,WNW,301,6.0,8.0,78,0.00,,,0.00,,2013-02-14 05:21:00,
2013-02-13 23:31:00,40.0,34.0,29.65,NW,315,7.0,12.0,78,0.00,,,0.00,,2013-02-14 05:31:00,
2013-02-13 23:42:00,40.0,34.0,29.65,NW,315,7.0,12.0,78,0.00,,,0.00,,2013-02-14 05:42:00,
2013-02-13 23:52:00,40.0,33.0,29.66,NW,307,6.0,11.0,77,0.00,,,0.00,,2013-02-14 05:52:00,